Location: Unspecified
(52.1971°N, 0.0000°E)
Time: 09:55:32
(UTC+00:00)

YUBILEINY - Pass Details

Date: 20 December 2019
Orbit: 1478 x 1509 km, 82.5° (Epoch: 17 January)

Event Time Altitude Azimuth Distance (km) Brightness Sun altitude
Exits shadow 20:31:44 12° 13° (NNE) 3,499 ? -41.6°
Drops below altitude 10° 20:32:07 10° 13° (NNE) 3,630 ? -41.7°
Sets 20:35:00 0° 12° (NNE) 4,612 ? -42.1°
